This demonstration page uses our WeatherBlox Daily Observations layout. Learn more.

Left ArrowRight Arrow

40.92945, -100.16068

Hourly Observations for February 6, 2020

Temp ( °F °C ) Dew Point ( °F °C ) Humidity (%) Winds ( mph kmh ) Pressure ( in mb ) Visibility ( mi km ) Precip ( " mm )
12:15 am 00:15 Clear 19 -7.2 15 -9.6 83 83 SW 5 7 29.91 1013 10 16 N/A
12:35 am 00:35 Clear 19 -7.5 14 -9.8 84 84 N N/A 29.90 1013 10 16 N/A
12:55 am 00:55 Clear 17 -8.4 14 -10.1 88 88 WNW 5 7 29.91 1013 10 16 N/A
1:15 am 01:15 Clear 17 -8.6 14 -10.2 88 88 N N/A 29.90 1013 10 16 N/A
1:35 am 01:35 Clear 17 -8.5 14 -10.1 88 88 N N/A 29.89 1012 10 16 N/A
1:55 am 01:55 Clear 17 -8.3 15 -9.7 90 90 N N/A 29.88 1012 10 16 N/A
2:15 am 02:15 Clear 17 -8.5 14 -10 89 89 N N/A 29.87 1012 10 16 N/A
2:35 am 02:35 Clear 16 -8.9 14 -10.2 90 90 NW 3 6 29.87 1011 10 16 N/A
2:55 am 02:55 Clear 15 -9.2 13 -10.6 90 90 WNW 6 9 29.86 1011 10 16 N/A
3:15 am 03:15 Clear 17 -8.2 14 -10.2 86 86 WNW 6 9 29.85 1011 10 16 N/A
3:35 am 03:35 Clear 17 -8.4 14 -10.2 87 87 NW 6 9 29.84 1011 10 16 N/A
3:55 am 03:55 Clear 16 -9.1 13 -10.8 88 88 WNW 3 6 29.83 1010 10 16 N/A
4:15 am 04:15 Clear 17 -8.3 14 -10.2 86 86 WNW 10 17 29.82 1010 10 16 N/A
4:35 am 04:35 Clear 19 -7.5 15 -9.6 85 85 WNW 9 15 29.80 1009 10 16 N/A
4:55 am 04:55 Clear 18 -7.7 14 -9.8 85 85 WNW 7 11 29.80 1009 10 16 N/A
5:15 am 05:15 Partly Cloudy 18 -7.8 15 -9.7 86 86 WNW 6 9 29.80 1009 10 16 N/A
5:35 am 05:35 Clear 17 -8.1 15 -9.7 88 88 WNW 3 6 29.81 1009 10 16 N/A
5:55 am 05:55 Clear 17 -8.6 14 -10.1 89 89 WNW 6 9 29.81 1010 10 16 N/A
6:15 am 06:15 Clear 16 -8.8 13 -10.3 89 89 W 3 6 29.81 1009 10 16 N/A
6:35 am 06:35 Clear 16 -8.8 13 -10.5 88 88 W 5 7 29.81 1009 10 16 N/A
6:55 am 06:55 Clear 16 -8.8 13 -10.5 88 88 W 6 9 29.80 1009 10 16 N/A
7:15 am 07:15 Clear 16 -8.7 13 -10.5 87 87 W 6 9 29.80 1009 10 16 N/A
7:35 am 07:35 Clear 17 -8.6 14 -10.1 89 89 WNW 8 13 29.80 1009 10 16 N/A
7:55 am 07:55 Sunny 17 -8.2 14 -10 87 87 W 8 13 29.80 1009 10 16 N/A
8:15 am 08:15 Sunny 18 -8 15 -9.7 88 88 WNW 9 15 29.80 1009 10 16 N/A
8:35 am 08:35 Sunny 19 -7.4 15 -9.3 86 86 WNW 7 11 29.79 1009 10 16 N/A
8:55 am 08:55 Sunny 21 -6.1 17 -8.5 83 83 WNW 9 15 29.78 1008 10 16 N/A
9:15 am 09:15 Sunny 23 -5.2 18 -7.8 82 82 WNW 10 17 29.77 1008 10 16 N/A
9:30 am 09:30 Sunny 24 -4.7 18 -8 78 78 WNW 9 15 29.76 1008 10 16 N/A
9:55 am 09:55 Sunny 25 -3.8 19 -7.2 78 78 NW 9 15 29.75 1008 10 16 N/A
10:15 am 10:15 Sunny 26 -3.1 20 -6.6 77 77 WNW 10 17 29.75 1007 10 16 N/A
10:35 am 10:35 Sunny 28 -2.4 20 -6.4 74 74 W 5 7 29.73 1007 10 16 N/A
10:55 am 10:55 Partly Cloudy 29 -1.5 21 -6 72 72 W 7 11 29.72 1006 10 16 N/A
11:15 am 11:15 Cloudy 30 -1.1 22 -5.8 71 71 WNW 8 13 29.71 1006 10 16 N/A
11:35 am 11:35 Partly Cloudy 31 -0.4 22 -5.6 68 68 WNW 8 13 29.70 1006 10 16 N/A
11:55 am 11:55 Sunny 32 undefined 22 -5.6 66 66 W 7 11 29.69 1005 10 16 N/A
12:15 pm 12:15 Sunny 34 1.2 22 -5.5 61 61 W 9 15 29.66 1005 10 16 N/A
12:35 pm 12:35 Sunny 36 2.1 23 -5.2 59 59 W 8 13 29.65 1004 10 16 N/A
12:55 pm 12:55 Partly Cloudy 37 2.7 23 -4.9 58 58 W 10 17 29.63 1003 10 16 N/A
1:15 pm 13:15 Cloudy 38 3.1 22 -5.3 54 54 W 9 15 29.62 1003 10 16 N/A
1:35 pm 13:35 Cloudy 37 3 22 -5.8 53 53 WNW 12 19 29.61 1003 10 16 N/A
1:55 pm 13:55 Partly Cloudy 39 3.8 22 -5.4 51 51 WNW 9 15 29.59 1002 10 16 N/A
2:15 pm 14:15 Partly Cloudy 40 4.5 23 -5.2 50 50 W 9 15 29.57 1001 10 16 N/A
2:35 pm 14:35 Sunny 40 4.7 22 -5.3 49 49 WNW 8 13 29.57 1001 10 16 N/A
2:55 pm 14:55 Partly Cloudy 40 4.5 23 -5.1 50 50 WNW 10 17 29.56 1001 10 16 N/A
3:15 pm 15:15 Mostly Cloudy 41 4.9 23 -5 49 49 NW 7 11 29.56 1001 10 16 N/A
3:35 pm 15:35 Partly Cloudy 42 5.4 24 -4.6 49 49 NW 9 15 29.54 1000 10 16 N/A
3:55 pm 15:55 Partly Cloudy 41 5.2 24 -4.3 51 51 WNW 10 17 29.56 1001 10 16 N/A
4:15 pm 16:15 Mostly Cloudy 42 5.5 24 -4.6 49 49 W 7 11 29.55 1001 10 16 N/A
4:35 pm 16:35 Partly Cloudy 42 5.4 24 -4.4 50 50 W 8 13 29.55 1001 10 16 N/A
4:55 pm 16:55 Sunny 40 4.6 25 -4.1 54 54 WNW 6 9 29.56 1001 10 16 N/A
5:15 pm 17:15 Sunny 38 3.1 25 -4 60 60 WNW 7 11 29.59 1002 10 16 N/A
5:35 pm 17:35 Partly Cloudy 36 2 25 -4 65 65 WNW 8 13 29.60 1002 10 16 N/A
5:55 pm 17:55 Mostly Cloudy 36 2.1 26 -3.6 66 66 W 7 11 29.61 1003 10 16 N/A
6:15 pm 18:15 Cloudy 36 2 26 -3.6 67 67 WNW 6 9 29.61 1003 10 16 N/A
6:35 pm 18:35 Cloudy 35 1.8 25 -3.8 67 67 WNW 6 9 29.62 1003 10 16 N/A
6:55 pm 18:55 Mostly Cloudy 38 3.4 24 -4.6 56 56 NNW 9 15 29.61 1003 10 16 N/A
7:15 pm 19:15 Mostly Cloudy 34 1.2 25 -3.7 70 70 NNW 7 11 29.63 1004 10 16 N/A
7:35 pm 19:35 Cloudy 34 1.1 26 -3.5 72 72 NW 9 15 29.64 1004 10 16 N/A
7:55 pm 19:55 Cloudy 34 1 26 -3.3 73 73 NW 6 9 29.66 1004 10 16 N/A
8:15 pm 20:15 Cloudy 34 1.2 27 -2.7 76 76 NW 10 17 29.65 1004 10 16 N/A
8:35 pm 20:35 Cloudy 33 0.3 27 -2.6 81 81 NW 9 15 29.67 1005 10 16 N/A
8:55 pm 20:55 Cloudy 32 0.2 28 -2.3 84 84 NNW 12 19 29.68 1005 10 16 N/A
9:15 pm 21:15 Cloudy 33 0.7 26 -3.1 76 76 N 9 15 29.69 1005 10 16 N/A
9:35 pm 21:35 Cloudy 33 0.8 26 -3.2 75 75 N 8 13 29.70 1006 10 16 N/A
9:55 pm 21:55 Cloudy 33 0.8 27 -2.6 78 78 NNW 8 13 29.71 1006 10 16 N/A
10:15 pm 22:15 Cloudy 34 1.1 28 -2 80 80 N 12 19 29.70 1006 10 16 N/A
10:35 pm 22:35 Mostly Cloudy 34 0.9 29 -1.5 84 84 N 10 17 29.71 1006 10 16 N/A
10:55 pm 22:55 Cloudy 33 0.5 30 -1.2 89 89 N 10 17 29.72 1006 10 16 N/A
11:15 pm 23:15 Cloudy 33 0.6 30 -1.2 88 88 N 10 17 29.73 1007 10 16 N/A
11:35 pm 23:35 Cloudy 32 0.2 29 -1.5 89 89 N 8 13 29.73 1007 10 16 N/A
11:55 pm 23:55 Mostly Cloudy 32 undefined 28 -2 87 87 N 6 9 29.75 1007 10 16 N/A

Powered by AerisWeather